| time (UTC) | temp C | wind direction | speed KPH | gust KPH | rain 1hr cm | rain 24hr cm | rain mn cm | humidity % | barometer mb |
| 20260503021505 | 0 | 291 | 22.5 | 29.0 | 0.00 | 0.00 | 0.00 | 95 | 1011.5 |
| 20260503020110 | 0 | 293 | 25.7 | 32.2 | 0.00 | 0.00 | 0.00 | 94 | 1011.6 |
| 20260503020002 | 0 | 294 | 25.7 | 32.2 | 0.00 | 0.00 | 0.00 | 94 | 1011.6 |
| 20260503014558 | 0 | 288 | 20.9 | 27.4 | 0.00 | 0.00 | 0.00 | 94 | 1011.9 |
| 20260503013159 | 0 | 293 | 24.1 | 38.6 | 0.00 | 0.00 | 0.00 | 94 | 1011.8 |
| 20260503011607 | 0 | 279 | 27.4 | 37.0 | 0.00 | 0.00 | 0.00 | 94 | 1011.7 |
| 20260503004552 | 0 | 282 | 29.0 | 40.2 | 0.00 | 0.00 | 0.00 | 95 | 1011.7 |
| 20260503003149 | 0 | 288 | 29.0 | 38.6 | 0.00 | 0.00 | 0.00 | 94 | 1011.9 |
| 20260503001547 | 0 | 282 | 29.0 | 40.2 | 0.00 | 0.00 | 0.00 | 94 | 1012.0 |
| 20260503000044 | 0 | 296 | 32.2 | 41.8 | 0.00 | 0.00 | 0.00 | 94 | 1012.0 |
| 20260502234550 | 0 | 278 | 35.4 | 46.7 | 0.00 | 0.00 | 0.00 | 93 | 1011.9 |
| 20260502233144 | 0 | 285 | 32.2 | 40.2 | 0.00 | 0.00 | 0.00 | 94 | 1011.8 |
| 20260502231543 | 0 | 286 | 32.2 | 41.8 | 0.00 | 0.00 | 0.00 | 93 | 1012.1 |
| 20260502230039 | 0 | 285 | 24.1 | 33.8 | 0.00 | 0.00 | 0.00 | 93 | 1012.5 |
| 20260502224538 | 0 | 285 | 27.4 | 37.0 | 0.00 | 0.00 | 0.00 | 91 | 1012.3 |
| 20260502223137 | 0 | 293 | 29.0 | 35.4 | 0.00 | 0.00 | 0.00 | 92 | 1012.5 |
| 20260502221540 | 0 | 295 | 22.5 | 30.6 | 0.00 | 0.00 | 0.00 | 93 | 1012.7 |
| 20260502220045 | 0 | 280 | 22.5 | 30.6 | 0.00 | 0.00 | 0.00 | 93 | 1012.9 |
| 20260502214535 | 0 | 286 | 19.3 | 41.8 | 0.00 | 0.00 | 0.00 | 93 | 1012.9 |
| 20260502213133 | 0 | 264 | 30.6 | 38.6 | 0.00 | 0.00 | 0.00 | 92 | 1012.8 |
| 20260502211532 | 0 | 288 | 33.8 | 48.3 | 0.00 | 0.00 | 0.00 | 92 | 1013.2 |
| 20260502210031 | 0 | 276 | 22.5 | 37.0 | 0.00 | 0.00 | 0.00 | 94 | 1013.3 |
| 20260502204530 | 1 | 269 | 24.1 | 40.2 | 0.00 | 0.00 | 0.00 | 89 | 1013.2 |
| 20260502203130 | 1 | 284 | 22.5 | 30.6 | 0.00 | 0.00 | 0.00 | 87 | 1013.3 |
| 20260502201537 | 1 | 288 | 27.4 | 33.8 | 0.00 | 0.00 | 0.00 | 86 | 1013.4 |
| 20260502200027 | 1 | 272 | 24.1 | 35.4 | 0.00 | 0.00 | 0.00 | 84 | 1013.7 |
| 20260502194536 | 1 | 275 | 22.5 | 35.4 | 0.00 | 0.00 | 0.00 | 84 | 1013.9 |
| 20260502193125 | 1 | 264 | 24.1 | 33.8 | 0.00 | 0.00 | 0.00 | 77 | 1014.1 |
| 20260502191533 | 1 | 282 | 27.4 | 40.2 | 0.00 | 0.00 | 0.00 | 83 | 1014.2 |
| 20260502190023 | 1 | 281 | 29.0 | 43.5 | 0.00 | 0.00 | 0.00 | 86 | 1014.4 |
| 20260502184532 | 1 | 269 | 29.0 | 38.6 | 0.00 | 0.00 | 0.00 | 91 | 1014.6 |
| 20260502183123 | 1 | 296 | 25.7 | 40.2 | 0.00 | 0.00 | 0.00 | 87 | 1014.6 |
| 20260502181518 | 1 | 266 | 25.7 | 35.4 | 0.00 | 0.00 | 0.00 | 85 | 1014.7 |
| 20260502163112 | 0 | 266 | 19.3 | 29.0 | 0.00 | 0.00 | 0.00 | 85 | 1015.8 |
| 20260502161509 | 0 | 272 | 27.4 | 40.2 | 0.00 | 0.00 | 0.00 | 86 | 1016.2 |
| 20260502151608 | 0 | 268 | 22.5 | 35.4 | 0.00 | 0.00 | 0.00 | 85 | 1017.2 |
| 20260502123038 | 0 | 267 | 14.5 | 24.1 | 0.00 | 0.00 | 0.00 | 70 | 1018.8 |
| 20260502121539 | 0 | 267 | 12.9 | 19.3 | 0.00 | 0.00 | 0.00 | 68 | 1018.9 |
| 20260502114539 | -1 | 259 | 9.7 | 17.7 | 0.00 | 0.00 | 0.00 | 70 | 1019.1 |
| 20260502113034 | -1 | 266 | 6.4 | 14.5 | 0.00 | 0.00 | 0.00 | 71 | 1019.4 |
| 20260502111533 | -1 | 274 | 4.8 | 11.3 | 0.00 | 0.00 | 0.00 | 71 | 1019.4 |
| 20260502110034 | -1 | 250 | 8.0 | 14.5 | 0.00 | 0.00 | 0.00 | 68 | 1019.6 |
| 20260502104530 | -1 | 288 | 8.0 | 12.9 | 0.00 | 0.00 | 0.00 | 68 | 1019.6 |
| 20260502103029 | -1 | 238 | 3.2 | 9.7 | 0.00 | 0.00 | 0.00 | 68 | 1019.8 |
| 20260502101528 | -1 | 153 | 3.2 | 6.4 | 0.00 | 0.00 | 0.00 | 70 | 1019.9 |
| 20260502091522 | -2 | 141 | 0.0 | 4.8 | 0.00 | 0.00 | 0.00 | 72 | 1020.1 |
| 20260502071509 | -5 | 141 | 0.0 | 4.8 | 0.00 | 0.00 | 0.00 | 82 | 1020.4 |
| 20260502070009 | -5 | 141 | 0.0 | 1.6 | 0.00 | 0.00 | 0.00 | 84 | 1020.4 |
| 20260502064514 | -6 | 141 | 3.2 | 4.8 | 0.00 | 0.00 | 0.00 | 85 | 1020.5 |
| 20260502063006 | -6 | 141 | 4.8 | 8.0 | 0.00 | 0.00 | 0.00 | 86 | 1020.5 |
| 20260502061502 | -6 | 141 | 0.0 | 4.8 | 0.00 | 0.00 | 0.00 | 87 | 1020.5 |
| 20260502060001 | -6 | 141 | 0.0 | 1.6 | 0.00 | 0.00 | 0.00 | 88 | 1020.6 |
| 20260502054601 | -6 | 141 | 1.6 | 8.0 | 0.00 | 0.00 | 0.00 | 88 | 1020.5 |
| 20260502053104 | -7 | 141 | 1.6 | 8.0 | 0.00 | 0.00 | 0.00 | 90 | 1020.6 |
| 20260502051602 | -7 | 141 | 0.0 | 0.0 | 0.00 | 0.00 | 0.00 | 91 | 1020.6 |
| 20260502050057 | -7 | 141 | 0.0 | 1.6 | 0.00 | 0.00 | 0.00 | 89 | 1020.4 |
| 20260502044557 | -7 | 141 | 0.0 | 3.2 | 0.00 | 0.00 | 0.00 | 90 | 1020.4 |
| 20260502043104 | -7 | 141 | 0.0 | 3.2 | 0.00 | 0.00 | 0.00 | 91 | 1020.5 |
| 20260502041553 | -6 | 141 | 1.6 | 4.8 | 0.00 | 0.00 | 0.00 | 90 | 1020.5 |
| 20260502040051 | -7 | 141 | 0.0 | 4.8 | 0.00 | 0.00 | 0.00 | 91 | 1020.5 |
| 20260502034550 | -7 | 141 | 0.0 | 1.6 | 0.00 | 0.00 | 0.00 | 91 | 1020.5 |
| 20260502033048 | -6 | 141 | 0.0 | 3.2 | 0.00 | 0.00 | 0.00 | 91 | 1020.5 |
| 20260502031546 | -7 | 141 | 0.0 | 3.2 | 0.00 | 0.00 | 0.00 | 90 | 1020.5 |
| 20260502030044 | -7 | 141 | 0.0 | 3.2 | 0.00 | 0.00 | 0.00 | 88 | 1020.4 |
| 20260502024543 | -6 | 141 | 3.2 | 8.0 | 0.00 | 0.00 | 0.00 | 88 | 1020.4 |
| 20260502023040 | -6 | 141 | 1.6 | 8.0 | 0.00 | 0.00 | 0.00 | 89 | 1020.3 |